Meteo Giornale » Osservazioni meteo Stati Uniti (USA) » Scottsdale

ore: 10:53 - Osservazioni Meteo Scottsdale
Lat. 33° 37' N Lon. 111° 54' W Alt. 460 metri s.l.m.

sereno

31 °C

Sereno

Temp. 24 Ore

24 °C

31 °C

Nord

7.4 Km/h

Dew point 17 °C

Umidità 43 %

Visibilità  10 Km

Il sole sorge alle ore 06:01

Il sole tramonta alle ore 18:53

Data e Ora Cielo e Fenomeni T °C DP °C Um. % Pres. hPa Vis. km Vento km/h
Oggi h: 10:53 sereno Sereno 31 17 43 1016 10 N 7.4
Oggi h: 09:53 sereno Sereno 30 17 45 1016 10 N 5.5
Oggi h: 08:53 sereno Sereno 29 17 48 1016 10 SE 11.1
Oggi h: 07:53 sereno Sereno 27 18 57 1016 10 N 0
Oggi h: 06:53 sereno Sereno 26 19 65 1015 10 N 0
Oggi h: 05:53 sereno Sereno 24 19 73 1015 10 N 0
Oggi h: 04:53 sereno Sereno 26 18 61 1014 10 N 0
Oggi h: 03:53 sereno Sereno 26 19 65 1014 10 N 0
Oggi h: 02:53 sereno Sereno 26 18 61 1014 10 N 0
Oggi h: 01:53 sereno Sereno 27 18 57 1015 10 N 0
Oggi h: 00:53 sereno Sereno 27 18 57 1015 10 N 0
Ieri h: 23:53 sereno Sereno 27 18 57 1014 10 N 5.5
Ieri h: 22:53 sereno Sereno 27 18 57 1014 10 N 5.5
Ieri h: 21:53 sereno Sereno 28 17 51 1014 10 E 7.4
Ieri h: 20:53 sereno Sereno 28 18 54 1014 10 N 5.5
Ieri h: 19:53 sereno Sereno 29 17 48 1013 10 N 5.5
Ieri h: 18:53 sereno Sereno 29 17 48 1012 10 SO 7.4
Ieri h: 17:53 sereno Sereno 31 17 43 1012 10 N 5.5
Ieri h: 16:53 sereno Sereno 31 17 43 1013 10 N 9.3
Ieri h: 15:53 sereno Sereno 31 18 45 1013 10 N 7.4
Ieri h: 14:53 sereno Sereno 29 19 54 1015 10 N 0
Ieri h: 13:53 sereno Sereno 28 19 58 1016 10 S/SE 16.7
Ieri h: 12:53 sereno Sereno 27 19 61 1016 10 SE 16.7
Ieri h: 11:53 sereno Sereno 27 19 61 1017 10 E/NE 11.1